Location: Home
(42.5358°N, 72.7383°W)
Time: 17:49:27
(UTC-05:00)

SR - Pass Details

Date: 13 December 2021
Orbit: 582 x 872 km, 66.7° (Epoch: 20 January)

Event Time Altitude Azimuth Distance (km) Brightness Sun altitude
Exits shadow 04:12:54 13° 35° (NE) 1,753 ? -32.1°
Maximum altitude 04:13:21 13° 42° (NE) 1,748 ? -32.0°
Drops below altitude 10° 04:15:35 10° 72° (ENE) 1,995 ? -31.6°
Sets 04:19:03 0° 99° (E) 2,957 ? -31.0°
